Wetbulb
40.20 39.12 38.30 37.55 37.11 36.37 35.88 36.31 36.96 36.71 37.17 36.91 37.57 37.92 38.09 37.91 38.08 38.76 38.98 38.97 39.84 40.72
39.34 38.44 37.26 36.75 36.40 35.74 35.89 36.15 36.15 36.22 35.72 36.27 36.29 36.44 36.41 36.19 36.02 36.38 37.15 37.65 38.55 38.97
38.54 37.93 37.11 36.59 35.22 35.14 35.40 35.52 35.42 34.96 35.03 35.12 34.70 34.77 34.77 34.52 35.37 35.04 34.97 35.34 35.36 36.28
37.57 37.18 36.10 35.34 35.17 34.73 35.03 34.69 34.30 34.08 33.85 33.83 32.97 32.72 32.52 33.53 33.66 33.20 33.20 33.66 32.77 33.73
37.69 36.47 35.14 34.13 34.31 34.61 33.66 34.02 33.55 33.56 32.64 32.76 31.78 31.42 31.25 32.23 32.17 31.01 30.84 31.51 31.32 31.46
34.97 34.54 33.80 33.37 34.09 34.20 33.23 32.42 32.60 32.15 30.95 30.94 29.77 29.89 29.99 31.80 30.25 29.62 29.54 29.93 30.32 30.15
32.80 32.75 32.57 33.16 33.11 33.01 32.41 30.38 30.13 30.78 29.75 29.09 27.80 28.56 29.09 30.37 29.22 27.85 27.46 28.13 28.76 29.17
31.69 31.59 31.68 31.91 31.85 31.58 31.20 29.61 28.97 28.87 28.49 27.06 26.79 27.25 27.95 28.62 28.28 26.41 25.10 25.55 25.83 27.47
29.39 29.52 29.36 29.98 29.53 29.70 29.28 28.74 27.09 26.62 26.93 25.01 26.23 27.42 28.46 27.75 26.51 25.00 23.35 22.91 23.29 25.12
27.41 26.73 25.47 28.76 28.58 27.49 26.87 26.87 25.81 24.79 24.77 23.82 23.90 26.80 27.47 26.83 23.82 22.55 21.27 21.07 21.90 22.70
26.40 23.61 26.85 24.74 27.34 25.39 27.16 26.14 25.46 23.91 23.18 22.95 23.42 26.24 26.12 26.27 22.18 21.27 21.31 20.61 21.90 21.81
22.83 22.35 24.59 22.91 25.29 26.48 27.18 26.64 25.58 24.53 22.60 20.84 21.25 26.09 25.55 23.25 22.45 21.45 20.18 20.94 21.50 21.73
25.38 23.29 24.04 26.60 26.21 27.58 28.22 27.00 27.26 24.54 22.62 24.14 20.10 25.40 25.57 23.33 21.69 19.97 19.27 19.85 20.66 24.05
28.67 28.19 28.40 28.16 28.25 28.37 28.03 27.23 24.83 24.90 23.15 21.16 21.77 21.35 25.27 25.03 21.14 20.93 19.68 18.98 18.83 20.09
MSLP
1020.63 1020.69 1020.88 1021.02 1020.98 1021.09 1020.95 1020.81 1020.55 1020.23 1019.73 1019.20 1018.76 1018.14 1017.68 1017.27 1016.94 1016.44 1016.12 1015.52 1015.22 1014.78
1021.10 1021.28 1021.49 1021.62 1021.64 1021.64 1021.46 1021.17 1020.92 1020.54 1020.06 1019.47 1019.07 1018.47 1017.94 1017.49 1017.04 1016.60 1016.09 1015.67 1015.18 1014.70
1021.64 1021.87 1022.05 1022.01 1022.09 1021.99 1021.90 1021.77 1021.31 1020.97 1020.39 1020.02 1019.49 1018.91 1018.43 1017.90 1017.31 1016.80 1016.40 1015.89 1015.53 1014.94
1022.12 1022.27 1022.43 1022.42 1022.43 1022.34 1022.26 1022.03 1021.60 1021.34 1020.95 1020.49 1020.10 1019.67 1019.16 1018.55 1017.85 1017.36 1016.79 1016.31 1015.79 1015.18
1022.40 1022.60 1022.65 1022.69 1022.60 1022.52 1022.51 1022.39 1022.09 1021.78 1021.47 1021.09 1020.73 1020.46 1019.85 1019.10 1018.55 1018.02 1017.47 1016.88 1016.24 1015.55
1022.85 1022.90 1022.82 1022.81 1022.70 1022.61 1022.74 1022.71 1022.43 1022.06 1021.92 1021.71 1021.53 1021.06 1020.41 1019.65 1019.28 1018.99 1018.53 1017.74 1016.89 1016.20
1023.55 1023.56 1023.41 1023.25 1023.21 1023.25 1023.14 1023.31 1023.07 1022.71 1022.58 1022.31 1022.00 1021.62 1020.89 1020.26 1020.03 1019.96 1019.24 1018.49 1017.63 1016.77
1024.27 1024.21 1024.11 1023.92 1023.86 1023.91 1023.72 1023.93 1023.86 1023.53 1023.29 1023.04 1022.51 1022.12 1021.54 1021.32 1020.86 1020.45 1020.13 1019.40 1018.52 1017.46
1024.89 1024.82 1024.72 1024.65 1024.51 1024.44 1024.46 1024.45 1024.50 1024.22 1023.83 1023.74 1023.49 1023.20 1022.46 1021.89 1021.72 1021.63 1021.07 1020.14 1019.21 1018.18
1025.25 1025.21 1025.16 1025.11 1025.12 1025.09 1025.11 1025.01 1024.95 1024.83 1024.67 1024.64 1024.51 1023.88 1023.04 1022.74 1022.58 1022.17 1021.83 1021.06 1020.03 1018.88
1025.53 1025.54 1025.50 1025.46 1025.43 1025.49 1025.39 1025.38 1025.42 1025.51 1025.53 1025.46 1025.14 1024.36 1023.79 1023.30 1022.96 1022.73 1022.28 1021.66 1020.82 1019.79
1025.85 1025.93 1025.86 1025.90 1025.83 1025.77 1025.63 1025.68 1025.73 1025.94 1026.06 1026.13 1025.68 1024.80 1024.28 1024.05 1023.47 1023.13 1022.71 1022.24 1021.40 1020.41
1026.08 1026.14 1026.14 1026.10 1026.07 1025.92 1025.77 1025.85 1025.94 1026.22 1026.47 1026.47 1026.29 1025.36 1024.69 1024.48 1023.99 1023.55 1023.10 1022.67 1022.07 1021.20
1026.27 1026.28 1026.31 1026.33 1026.18 1026.06 1025.95 1026.05 1026.18 1026.37 1026.70 1026.85 1026.55 1026.22 1025.31 1024.81 1024.60 1024.13 1023.64 1023.23 1022.70 1022.05
Wind_Speed
10 7 7 9 8 7 7 8 11 11 11 12 12 11 10 8 8 10 8 11 9 9
8 9 8 9 9 7 8 9 10 11 12 12 12 12 12 8 10 10 10 10 10 9
8 8 7 8 9 9 9 10 10 11 12 12 14 15 13 11 11 11 9 9 12 11
6 7 7 7 8 8 9 10 11 11 12 13 14 14 13 13 12 13 13 12 12 14
5 5 7 8 8 8 9 10 10 11 13 13 14 14 14 13 13 14 14 14 13 13
7 7 7 7 7 7 9 10 10 11 12 13 15 15 14 13 14 14 14 15 13 14
7 7 7 7 8 9 10 11 11 12 13 14 15 15 15 14 13 13 14 16 15 14
7 7 7 8 8 9 10 11 11 12 12 15 14 13 14 13 12 14 15 15 16 15
7 6 6 7 8 9 10 10 10 12 12 15 12 25 21 16 11 13 14 15 16 15
5 5 4 7 7 6 7 8 10 11 12 12 12 26 22 19 9 10 12 14 15 15
4 4 5 4 6 4 4 6 8 9 10 10 11 25 24 20 8 10 11 13 15 16
4 4 3 4 5 4 5 5 6 8 9 11 10 26 26 17 10 10 12 12 15 16
4 3 4 4 3 3 4 4 4 7 8 16 11 23 25 18 8 10 9 11 13 26
6 4 4 4 4 3 4 4 4 6 7 9 13 14 25 25 9 8 9 9 9 10
Wind_Direction
41 33 32 26 19 13 6 353 0 350 349 346 343 345 343 335 328 322 315 311 300 293
46 40 36 36 27 13 7 360 2 357 355 355 352 350 345 337 332 329 321 309 300 292
53 47 40 39 32 16 15 9 8 5 5 0 1 359 350 344 334 343 334 326 323 314
50 49 46 42 38 22 18 14 17 10 9 10 5 1 353 343 355 346 340 340 331 324
65 60 63 43 40 31 26 22 17 19 16 14 9 3 355 351 1 356 351 346 343 335
50 45 54 53 45 42 39 26 20 25 24 16 13 5 359 2 10 1 357 353 349 353
50 46 43 39 40 36 42 32 20 24 29 15 19 6 2 1 14 5 2 1 354 356
52 46 42 42 46 39 46 46 27 22 32 22 19 7 8 0 10 13 3 5 359 358
64 53 44 48 41 51 41 47 37 29 29 27 16 12 10 19 14 15 9 5 5 3
75 68 38 57 57 51 52 47 47 36 30 31 14 18 16 26 12 20 15 4 12 10
68 63 68 53 59 45 55 56 55 45 40 29 13 24 23 13 28 20 17 13 10 16
65 63 63 61 59 38 54 47 65 54 41 35 13 26 27 19 13 25 21 15 9 25
92 80 64 63 63 48 68 55 61 70 54 38 25 19 25 30 10 17 20 19 16 18
92 77 96 83 54 42 51 60 52 67 65 43 28 18 22 25 14 15 18 17 14 16